Weather History for Oelwein, IA

Change the Weather History Date:

Saturday, December 28, 2013

  Actual Average Record
Temperature  
Mean Temperature 30 °F -  
Max Temperature 39 °F 28 °F 57 °F (1984)
Min Temperature 21 °F 12 °F -18 °F (1961)
Degree Days  
Heating Degree Days 35    
Moisture  
Dew Point 28 °F    
Average Humidity 87    
Maximum Humidity 100    
Minimum Humidity 75    
Precipitation  
Precipitation 0.00 in - - ()
Sea Level Pressure  
Sea Level Pressure 29.88 in    
Wind  
Wind Speed 10 mph (South)    
Max Wind Speed 23 mph    
Max Gust Speed 25 mph    
Visibility 10 miles    
Events      
Averages and records for this station are not official NWS values.
T = Trace of Precipitation, MM = Missing Value Source: NWS Daily Summary

Daily Weather History Graph

Daily Weather History Graph

Search for Another Location

Airport:

Trip Planner

Search our weather history database for the weather conditions in past years. The results will help you decide how hot, cold, wet, or windy it might be!

Date:

Astronomy

Dec. 28, 2013 Rise Set
Actual Time 7:37 AM CST 4:41 PM CST
Civil Twilight 7:05 AM CST 5:13 PM CST
Nautical Twilight 6:29 AM CST 5:49 PM CST
Astronomical Twilight 5:55 AM CST 6:23 PM CST
Moon 3:11 AM CST (12/28) 1:35 PM CST (12/28)
Length of Visible Light 10h 08m
Length of Day
9h 04m
Waning Crescent, 19% of the Moon is Illuminated
Dec 28
Waning Crescent
Jan 1
New
Jan 7
First Quarter
Jan 15
Full
Jan 23
Last Quarter

Hourly Weather History & Observations

Time (CST) Temp. Windchill Dew Point Humidity Pressure Visibility Wind Dir Wind Speed Gust Speed Precip Events Conditions
12:15 AM 32.0 °F 24.2 °F 28.4 °F 87% 30.05 in 10.0 mi WSW 9.2 mph - N/A   Clear
12:35 AM 26.6 °F 20.0 °F 23.0 °F 86% 30.04 in 10.0 mi SW 5.8 mph - N/A   Clear
12:55 AM 24.8 °F 17.9 °F 23.0 °F 93% 30.04 in 10.0 mi South 5.8 mph - N/A   Clear
1:15 AM 24.8 °F 20.5 °F 24.8 °F 100% 30.03 in 10.0 mi SW 3.5 mph - N/A   Clear
1:35 AM 28.4 °F 23.3 °F 26.6 °F 93% 30.02 in 10.0 mi SW 4.6 mph - N/A   Clear
1:55 AM 21.2 °F 13.6 °F 21.2 °F 100% 30.03 in 10.0 mi South 5.8 mph - N/A   Clear
2:15 AM 23.0 °F 17.0 °F 23.0 °F 100% 30.03 in 10.0 mi South 4.6 mph - N/A   Clear
2:35 AM 21.2 °F 13.6 °F 21.2 °F 100% 30.02 in 5.0 mi South 5.8 mph - N/A   Clear
2:55 AM - - - N/A% 30.02 in 9.0 mi South 5.8 mph - N/A   Clear
3:15 AM 21.2 °F 11.7 °F 21.2 °F 100% 30.01 in 8.0 mi South 8.1 mph - N/A   Clear
3:35 AM 21.2 °F 12.6 °F 21.2 °F 100% 30.01 in 9.0 mi South 6.9 mph - N/A   Clear
3:55 AM 23.0 °F 13.9 °F 23.0 °F 100% 30.00 in 10.0 mi South 8.1 mph - N/A   Clear
4:15 AM 21.2 °F 11.7 °F 21.2 °F 100% 29.99 in 10.0 mi South 8.1 mph - N/A   Clear
4:35 AM 23.0 °F 13.9 °F 23.0 °F 100% 29.98 in 10.0 mi South 8.1 mph - N/A   Clear
4:55 AM 23.0 °F 14.7 °F 23.0 °F 100% 29.98 in 10.0 mi South 6.9 mph - N/A   Clear
5:15 AM 24.8 °F 16.1 °F 23.0 °F 93% 29.98 in 10.0 mi SSE 8.1 mph - N/A   Clear
5:35 AM 23.0 °F 15.8 °F 21.2 °F 93% 29.98 in 10.0 mi SSE 5.8 mph - N/A   Clear
5:55 AM 21.2 °F 10.9 °F 21.2 °F 100% 29.97 in 10.0 mi SSE 9.2 mph - N/A   Clear
6:15 AM 21.2 °F 11.7 °F 21.2 °F 100% 29.97 in 10.0 mi SSE 8.1 mph - N/A   Clear
6:35 AM 23.0 °F 12.4 °F 23.0 °F 100% 29.97 in 10.0 mi South 10.4 mph - N/A   Clear
6:55 AM 23.0 °F 14.7 °F 21.2 °F 93% 29.97 in 10.0 mi South 6.9 mph - N/A   Clear
7:15 AM 23.0 °F 13.9 °F 21.2 °F 93% 29.96 in 10.0 mi South 8.1 mph - N/A   Clear
7:35 AM 23.0 °F 13.9 °F 23.0 °F 100% 29.96 in 10.0 mi South 8.1 mph - N/A   Clear
7:55 AM 23.0 °F 13.1 °F 21.2 °F 93% 29.95 in 10.0 mi SSE 9.2 mph - N/A   Clear
8:15 AM 24.8 °F 14.0 °F 23.0 °F 93% 29.94 in 10.0 mi South 11.5 mph - N/A   Clear
8:35 AM 26.6 °F 16.8 °F 23.0 °F 86% 29.94 in 10.0 mi SSE 10.4 mph - N/A   Clear
8:55 AM 26.6 °F 16.2 °F 24.8 °F 93% 29.94 in 10.0 mi South 11.5 mph - N/A   Clear
9:15 AM 28.4 °F 18.5 °F 24.8 °F 86% 29.93 in 10.0 mi South 11.5 mph - N/A   Clear
9:35 AM 28.4 °F 18.5 °F 24.8 °F 86% 29.93 in 10.0 mi South 11.5 mph - N/A   Clear
9:55 AM 30.2 °F 20.8 °F 26.6 °F 86% 29.93 in 10.0 mi South 11.5 mph - N/A   Clear
10:15 AM 32.0 °F 22.5 °F 26.6 °F 80% 29.92 in 10.0 mi South 12.7 mph - N/A   Clear
10:35 AM 32.0 °F 23.6 °F 28.4 °F 87% 29.92 in 10.0 mi South 10.4 mph - N/A   Clear
10:55 AM 33.8 °F 26.4 °F 28.4 °F 81% 29.91 in 10.0 mi South 9.2 mph - N/A   Clear
11:15 AM 33.8 °F 26.4 °F 28.4 °F 81% 29.89 in 10.0 mi SSW 9.2 mph - N/A   Clear
11:35 AM 35.6 °F 27.5 °F 30.2 °F 81% 29.88 in 10.0 mi South 11.5 mph - N/A   Clear
11:55 AM 35.6 °F 27.1 °F 30.2 °F 81% 29.87 in 10.0 mi South 12.7 mph - N/A   Clear
12:15 PM 35.6 °F 27.5 °F 30.2 °F 81% 29.86 in 10.0 mi South 11.5 mph - N/A   Clear
12:35 PM 35.6 °F 26.6 °F 32.0 °F 87% 29.84 in 10.0 mi South 13.8 mph - N/A   Clear
12:55 PM 37.4 °F 29.3 °F 32.0 °F 81% 29.83 in 10.0 mi South 12.7 mph - N/A   Clear
1:15 PM 37.4 °F 29.3 °F 32.0 °F 81% 29.82 in 10.0 mi South 12.7 mph - N/A   Clear
1:35 PM 37.4 °F 29.3 °F 32.0 °F 81% 29.82 in 10.0 mi South 12.7 mph - N/A   Clear
1:55 PM 39.2 °F 31.6 °F 32.0 °F 75% 29.81 in 10.0 mi South 12.7 mph - N/A   Clear
2:15 PM 37.4 °F 28.9 °F 32.0 °F 81% 29.80 in 10.0 mi South 13.8 mph - N/A   Clear
2:35 PM 39.2 °F 31.6 °F 32.0 °F 75% 29.80 in 10.0 mi South 12.7 mph - N/A   Clear
2:55 PM 39.2 °F 30.8 °F 32.0 °F 75% 29.80 in 10.0 mi South 15.0 mph - N/A   Clear
3:15 PM 39.2 °F 30.5 °F 32.0 °F 75% 29.80 in 10.0 mi South 16.1 mph - N/A   Clear
3:35 PM 39.2 °F 30.8 °F 32.0 °F 75% 29.79 in 10.0 mi South 15.0 mph - N/A   Clear
3:55 PM 37.4 °F 28.5 °F 32.0 °F 81% 29.79 in 10.0 mi South 15.0 mph - N/A   Clear
4:15 PM 37.4 °F 28.2 °F 32.0 °F 81% 29.78 in 10.0 mi South 16.1 mph - N/A   Clear
4:35 PM 37.4 °F 27.8 °F 32.0 °F 81% 29.77 in 10.0 mi South 17.3 mph - N/A   Clear
4:55 PM 37.4 °F 27.8 °F 32.0 °F 81% 29.77 in 10.0 mi South 17.3 mph - N/A   Clear
5:15 PM 37.4 °F 28.2 °F 32.0 °F 81% 29.77 in 10.0 mi South 16.1 mph - N/A   Clear
5:35 PM 37.4 °F 27.8 °F 32.0 °F 81% 29.76 in 10.0 mi South 17.3 mph - N/A   Clear
5:55 PM 37.4 °F 27.5 °F 30.2 °F 75% 29.75 in 10.0 mi South 18.4 mph - N/A   Clear
6:15 PM 37.4 °F 28.5 °F 30.2 °F 75% 29.76 in 10.0 mi South 15.0 mph - N/A   Clear
6:35 PM 37.4 °F 31.4 °F 30.2 °F 75% 29.78 in 10.0 mi South 8.1 mph - N/A   Clear
6:55 PM 37.4 °F 28.9 °F 30.2 °F 75% 29.78 in 10.0 mi SSW 13.8 mph - N/A   Clear
7:15 PM 37.4 °F 28.5 °F 30.2 °F 75% 29.78 in - SSW 15.0 mph - N/A   Clear
7:35 PM 37.4 °F 29.3 °F 30.2 °F 75% 29.78 in 10.0 mi SSW 12.7 mph - N/A   Clear
7:55 PM 35.6 °F 25.9 °F 30.2 °F 81% 29.77 in 10.0 mi SSW 16.1 mph - N/A   Clear
8:15 PM 35.6 °F 27.1 °F 30.2 °F 81% 29.78 in 10.0 mi SSW 12.7 mph - N/A   Clear
8:35 PM 35.6 °F 27.1 °F 30.2 °F 81% 29.78 in 10.0 mi SW 12.7 mph - N/A   Partly Cloudy
8:55 PM 33.8 °F 24.3 °F 30.2 °F 87% 29.78 in 10.0 mi SW 13.8 mph - N/A   Partly Cloudy
9:15 PM 33.8 °F 24.8 °F 30.2 °F 87% 29.78 in 10.0 mi SW 12.7 mph - N/A   Clear
9:35 PM 33.8 °F 24.8 °F 30.2 °F 87% 29.78 in 10.0 mi SW 12.7 mph - N/A   Clear
9:55 PM 32.0 °F 25.6 °F 28.4 °F 87% 29.78 in 10.0 mi WSW 6.9 mph - N/A   Clear
10:15 PM 32.0 °F 22.1 °F 28.4 °F 87% 29.79 in 10.0 mi West 13.8 mph - N/A   Clear
10:35 PM 32.0 °F 20.5 °F 30.2 °F 93% 29.80 in 10.0 mi WNW 18.4 mph - N/A   Partly Cloudy
10:55 PM 32.0 °F 19.8 °F 32.0 °F 100% 29.81 in 10.0 mi NW 20.7 mph - N/A   Mostly Cloudy
11:15 PM 32.0 °F 19.2 °F 32.0 °F 100% 29.83 in 10.0 mi NW 23.0 mph - N/A   Overcast
11:35 PM 32.0 °F 21.2 °F 32.0 °F 100% 29.83 in 8.0 mi NW 16.1 mph 25.3 mph N/A   Overcast
11:55 PM 32.0 °F 19.2 °F 30.2 °F 93% 29.83 in 6.0 mi WNW 23.0 mph - N/A   Overcast